Preview of NWS' New Version of Forecast
This preview is not operational and should not be used for support decisions.
Latest weather observations around

Seattle, Seattle-Tacoma International Airport (KSEA)

Using English Units (Switch to International System of Units)
Date/ Time (PST) Wind (mph) Vis. (mi) Weather Sky Cond. Temp (°F) Rel. Humidity Wind Chill (°F) Heat Index (°F) Pressure Precip. (in)
Air Dwpt 6 hour Altimeter (inHg) Sea level (inHg) 1 hr 3 hr 6 hr
Max Min
Feb 21 13:53 3 10 Partly Cloudy FEW030 SCT250 46 25     43% 45   30.11 30.14      
Feb 21 12:53 N 11 10 Partly Cloudy FEW030 SCT250 44 26     49% 38   30.13 30.15      
Feb 21 11:53 N 9 10 Clear CLR 43 28     55% 38   30.14 30.17      
Feb 21 10:53 NNW 11 10 Mostly Clear FEW020 FEW200 42 28     57% 36   30.14 30.17      
Feb 21 09:53 NNE 5 10 Mostly Clear FEW015 FEW200 41 28     60% 38   30.13 30.16      
Feb 21 08:53 E 6 10 Mostly Clear FEW015 38 28     67% 33   30.12 30.14      
Feb 21 07:53 ESE 8 10 Mostly Clear FEW010 33 27     78% 26   30.11 30.14      
Feb 21 06:53 E 6 9 Mostly Clear FEW005 FEW020 33 28     82% 28   30.1 30.13      
Feb 21 06:09 E 9 10 Mostly Clear FEW004 FEW009 33 29     85% 25   30.08        
Feb 21 05:53 ENE 8 9 Mostly Cloudy SCT005 BKN018 34 31     88% 27   30.09 30.11      
Feb 21 05:26 NE 8 8 Cloudy BKN007 OVC018 34 30     85% 27   30.08        
Feb 21 05:15 N 7 8 Mostly Cloudy SCT007 BKN018 34 29     82% 28   30.08        
Feb 21 04:53 Calm 8 Partly Cloudy SCT014 32 28     85%     30.07 30.1      
Feb 21 03:53 Calm 9 Mostly Clear FEW021 37 31     78%     30.06 30.08      
Feb 21 03:38 NE 3 10 Partly Cloudy SCT021 36 31     82% 33   30.05        
Feb 21 02:53 ENE 7 10 Cloudy OVC023 38 31     76% 33   30.05 30.08      
Feb 21 01:53 NNE 7 10 Clear   38 32     79% 33   30.03 30.06      
Feb 21 01:39 N 8 10 Mostly Cloudy BKN020 BKN080 37 31     78% 31   30.03        
Feb 21 00:53 N 9 10 Mostly Cloudy FEW020 SCT030 BKN036 38 31     76% 31   30.01 30.04      
Feb 20 23:53 NNE 9 10 Cloudy OVC028 39 32     76% 33   30 30.02      
Feb 20 22:53 NNE 8 10 Cloudy OVC028 40 32     73% 34   29.97 30      
Feb 20 21:53 N 10 10 Cloudy OVC028 39 31     72% 32   29.97 29.99      
Feb 20 20:53 N 9 10 Mostly Cloudy BKN028 39 30     70% 33   29.94 29.96      
Feb 20 19:53 N 15 10 Partly Cloudy SCT031 38 30     73% 29   29.92 29.94      
Feb 20 18:53 N 13 10 Clear   38 30     73% 30   29.9 29.93      
Feb 20 17:53 N 6 10 Partly Cloudy FEW023 SCT037 38 30     73% 33   29.88 29.9      
Feb 20 16:53 N 13 10 Mostly Cloudy SCT023 BKN036 41 31     67% 34   29.86 29.89      
Feb 20 15:53 N 8 10 Mostly Cloudy FEW023 BKN038 41 31     67% 36   29.86 29.88      
Feb 20 14:53 N 7 10 Mostly Cloudy FEW023 SCT040 BKN055 41 33     73% 36   29.86 29.88      
Feb 20 14:15 NNE 8 10 Cloudy SCT023 BKN042 OVC050 40 32     73% 34   29.85        
Feb 20 13:53 NE 9 10 Mostly Cloudy FEW014 BKN025 BKN040 40 33     76% 34   29.85 29.88      
Feb 20 12:53 NNW 6 10 Mostly Cloudy FEW012 BKN021 BKN038 42 34     73% 38   29.85 29.88      
Feb 20 12:11 N 3 10 Mostly Cloudy FEW009 BKN017 BKN050 42 32     67% 40   29.85        
Feb 20 11:53 N 3 10 Mostly Cloudy FEW009 SCT016 BKN055 42 33     70% 40   29.85 29.88      
Feb 20 10:53 NW 3 10 Mostly Cloudy FEW006 SCT015 BKN055 41 34     76% 39   29.85 29.88      
Feb 20 09:53 Calm 10 Cloudy SCT006 OVC034 39 33     79%     29.86 29.88     0
Feb 20 09:19 Calm 10 Cloudy FEW005 FEW020 OVC039 38 33     82%     29.86        
Feb 20 08:53 ENE 6 10 Cloudy FEW012 OVC039 38 33     82% 33   29.86 29.88      
Feb 20 07:53 ENE 7 10 Cloudy FEW013 SCT020 OVC050 38 33     82% 33   29.85 29.88      
Feb 20 07:21 5 10 Cloudy SCT017 BKN024 OVC060 37 34     89% 33   29.84        
Feb 20 06:53 E 6 10 Mostly Cloudy FEW020 BKN060 37 34     89% 32   29.84 29.86   0  
Feb 20 05:53 NE 7 10 Mostly Cloudy FEW020 BKN055 BKN070 37 33     85% 32   29.83 29.86      
Feb 20 04:53 NE 6 10 Cloudy SCT055 OVC075 37 34     89% 32   29.83 29.85 0    
Feb 20 04:29 NE 7 9 Cloudy FEW027 OVC055 38 34     85% 33   29.83   0    
Feb 20 04:08 N 7 9 Cloudy SCT005 BKN027 OVC060 38 35     89% 33   29.84   0    
Feb 20 03:53 N 6 8 Light Rain BKN008 BKN027 OVC070 38 35     89% 33   29.83 29.86 0   0
Feb 20 03:43 NNE 5 7 Light Rain BKN006 OVC012 38 35     89% 34   29.84   0    
Feb 20 02:53 NW 3 5 Light Rain and Fog/Mist BKN013 OVC017 37 34     89% 35   29.83 29.86 0    
Feb 20 02:46 Calm 6 Light Rain and Fog/Mist BKN013 OVC017 37 35     92%     29.83   0    
Feb 20 02:05 NNE 6 4 Light Rain and Fog/Mist BKN007 BKN010 OVC017 38 34     85% 33   29.84   0    
Feb 20 01:53 N 5 6 Light Rain and Fog/Mist BKN012 OVC019 38 34     85% 34   29.83 29.86 0    
Feb 20 01:05 NNE 6 6 Light Rain and Fog/Mist BKN011 OVC019 37 35     92% 32   29.84   0    
Feb 20 00:53 N 10 5 Light Rain and Fog/Mist BKN007 OVC011 37 34     89% 30   29.84 29.86 0 0  
Feb 20 00:41 N 16 5 Light Rain and Fog/Mist BKN007 BKN011 OVC023 39 35     86% 30   29.84   0    
Feb 20 00:02 Calm 10 Cloudy SCT007 OVC027 39 36     89%     29.83        
Feb 19 23:53 S 5 10 Cloudy BKN025 OVC031 40 36     86% 37   29.83 29.85      
Feb 19 22:53 Calm 10 Cloudy BKN026 OVC060 39 35     86%     29.83 29.86      
Feb 19 22:40 S 6 10 Cloudy SCT015 BKN055 OVC070 39 35     86% 35   29.84        
Feb 19 21:53 W 3 10 Mostly Cloudy BKN013 BKN030 BKN060 40 35     83% 38   29.85 29.88     0
Feb 19 20:53 SW 6 10 Cloudy SCT011 BKN060 OVC100 41 36     82% 37   29.86 29.88      
Feb 19 20:41 SW 7 10 Clear   41 36     82% 36   29.86        
Feb 19 20:23 SW 6 10 Clear   41 36     82% 37   29.86        
Feb 19 19:53 WSW 8 10 Clear   42 37     82% 37   29.88 29.9      
Feb 19 18:53 SW 10 10 Cloudy BKN010 OVC014 42 38     85% 36   29.89 29.91 0 0  
Feb 19 17:53 S 11 10 Cloudy OVC010 42 38     85% 36   29.91 29.93      
Feb 19 16:53 S 15 10 Cloudy BKN011 OVC018 42 38     85% 35   29.94 29.96 0    
Feb 19 15:53 SSW 13 10 Light Rain OVC011 42 38     85% 35   29.98 30 0   0
Feb 19 15:16 SSW 13 10 Light Rain OVC013 42 38     85% 35   30.01   0    
Feb 19 14:53 SSW 9 10 Light Rain OVC015 42 38     85% 37   30.02 30.05 0    
Feb 19 14:22 SW 11 10 Cloudy OVC015 42 37     82% 36   30.04   0    
Feb 19 13:53 SSW 14 10 Light Rain OVC012 41 37     86% 33   30.05 30.08 0    
Feb 19 12:53 SSW 8 9 Light Rain BKN010 OVC015 41 37     86% 36   30.09 30.12 0 0  
Feb 19 12:48 SSW 7 9 Light Rain BKN010 OVC015 41 37     87% 36   30.09   0    
Feb 19 11:53 S 9 10 Cloudy OVC008 40 36     86% 34   30.13 30.16      
Feb 19 10:53 6 10 Cloudy BKN008 OVC012 40 36     86% 36   30.16 30.19      
Feb 19 10:04 SSW 8 10 Cloudy FEW008 BKN012 OVC065 40 36     86% 34   30.18        
Feb 19 09:53 SSW 9 10 Cloudy FEW009 BKN015 OVC065 40 36     86% 34   30.18 30.21     0
Feb 19 08:53 SSW 8 10 Cloudy FEW008 BKN013 OVC070 40 35     83% 34   30.18 30.21      
Feb 19 08:14 SW 8 10 Cloudy FEW008 BKN013 OVC045 39 35     86% 33   30.2        
Feb 19 07:53 WSW 7 10 Cloudy FEW008 SCT017 OVC044 39 35     86% 34   30.21 30.23 0    
Feb 19 07:44 SW 7 10 Cloudy SCT008 SCT017 OVC044 39 35     86% 34   30.2   0    
Feb 19 07:16 SW 8 10 Cloudy SCT008 BKN017 OVC043 39 35     86% 33   30.2   0    
Feb 19 06:53 5 7 Light Rain BKN008 OVC015 39 35     86% 36   30.21 30.24 0 0  
Feb 19 05:53 Calm 6 Light Rain and Fog/Mist OVC008 38 35     89%     30.23 30.25 0    
Feb 19 05:36 SSE 3 7 Light Rain BKN008 OVC013 38 35     89% 36   30.23   0    
Feb 19 04:53 S 3 7 Light Rain BKN010 BKN015 OVC041 39 35     86% 37   30.25 30.28 0    
Feb 19 03:53 S 8 10 Clear   39 35     86% 33   30.26 30.28      
Feb 19 03:38 S 6 10 Cloudy SCT010 BKN017 OVC023 39 35     86% 35   30.26        
Feb 19 02:53 SSE 7 10 Cloudy FEW009 BKN014 OVC020 39 35     86% 34   30.27 30.3      
Feb 19 01:53 S 6 10 Cloudy SCT008 OVC013 39 35     86% 35   30.29 30.32      
Feb 19 01:01 SSW 6 10 Cloudy SCT008 OVC013 40 36     86% 36   30.29        
Feb 19 00:53 SSW 8 10 Cloudy BKN010 OVC013 40 36     86% 34   30.29 30.32      
Feb 19 00:00 SSE 6 10 Cloudy OVC010 39 35     86% 35   30.29        
Feb 18 23:53 SSE 6 10 Cloudy SCT010 OVC019 39 35     86% 35   30.29 30.32      
Feb 18 22:53 SE 7 10 Cloudy BKN015 OVC019 40 35     83% 35   30.31 30.34      
Feb 18 21:53 SSE 7 10 Cloudy BKN015 OVC021 40 35     83% 35   30.33 30.35 0   0
Feb 18 20:53 SE 5 7 Light Rain FEW022 BKN028 OVC060 40 35     83% 37   30.32 30.35 0    
Feb 18 20:44 SE 5 5 Light Rain BKN025 BKN033 OVC060 40 35     83% 37   30.32   0    
Feb 18 19:53 ESE 5 10 Mostly Cloudy FEW028 BKN060 41 32     70% 38   30.33 30.36      
Feb 18 18:53 E 3 10 Mostly Cloudy BKN060 41 33     73% 39   30.34 30.37      
Feb 18 17:53 NNE 3 10 Mostly Cloudy FEW027 BKN060 42 32     67% 40   30.34 30.36      
Feb 18 16:53 Calm 10 Mostly Cloudy FEW027 BKN065 43 33     68%     30.34 30.37      
Feb 18 15:53 SW 6 10 Mostly Cloudy FEW026 SCT040 BKN060 45 33     63% 42   30.34 30.37      
Feb 18 15:23 Calm 10 Mostly Cloudy SCT025 BKN060 BKN250 44 33     65%     30.35        
Feb 18 14:53 SSW 7 10 Mostly Cloudy BKN021 BKN065 BKN250 45 35     68% 41   30.35 30.37      
Feb 18 14:12 S 9 10 Mostly Cloudy FEW010 BKN019 BKN032 44 34     67% 39   30.36        
Feb 18 13:53 S 9 10 Mostly Cloudy FEW008 BKN013 BKN032 44 35     70% 39   30.36 30.39      
May 15 00:53 WSW 6 10 Mostly Clear FEW250 63 51     65%     29.89 29.9      
May 14 14:53 NW 8 10 Mostly Clear FEW050 FEW250 84 55     37%   83 29.9 29.91      
May 14 05:53 SSW 3 10 Mostly Clear FEW250 59 52     78%     29.96 29.97      
May 13 17:53 N 5 10 Mostly Clear FEW250 84 46     27%   82 29.9 29.91      
May 13 01:53 NE 7 10 Clear CLR 60 47     62%     29.97 29.98      
May 12 18:53 NNE 13 10 Mostly Clear FEW030 74 49     41%   73 29.98 29.99      
May 12 17:53 N 13 10 Mostly Clear FEW030 76 49     39%   75 29.99 30.01      
May 12 13:53 NNE 11 10 Clear   72 51     48%   71 30.07 30.08      
Jun 12 03:53 SW 7 10 Partly Cloudy SCT011 52 49     89%     30 30.02      
Jun 11 13:53 WSW 7 10 Partly Cloudy FEW040 SCT170 65 48     54%     30.02 30.04      
Jun 11 02:53 S 5 10 Mostly Cloudy SCT080 BKN180 53 49     86%     29.99 30.01      
Jun 10 15:53 WNW 10 10 Partly Cloudy SCT045 SCT200 66 41     40%     29.86 29.87      
Jun 07 10:53 W 7 10 Mostly Cloudy FEW120 BKN250 67 48     51%     29.78 29.79      
Jun 06 05:53 NNE 6 10 Partly Cloudy SCT140 SCT250 56 43     62%     30.01 30.03      
Jun 05 21:53 N 8 10 Mostly Cloudy BKN250 62 43     50%     30.06 30.07